User: anonymous
Location: Ostrava
(49.8330°N, 18.2830°E)
Time: 09:39:45
(UTC+02:00)
Language:

Cosmos 2221 - Orbit

View from above orbital plane
View from above orbital plane
View from above satellite
View from above satellite

Ground track
Ground track

The orbit data is extracted from the following two-line orbital elements,

1 22236U 92080A   14114.79198030  .00001588  00000-0  17982-3 0  1198
2 22236 082.5102 063.5401 0016729 204.1337 155.9097 14.85747887156512
Epoch (UTC): 24 April 2014 19:00:27
Eccentricity: 0.0016729
inclination: 82.5102°
perigee height: 599 km
apogee height: 623 km
right ascension of ascending node: 63.5401°
argument of perigee: 204.1337°
revolutions per day: 14.85747887
mean anomaly at epoch: 155.9097°
orbit number at epoch: 15651

The dashed part of the orbit path shows where the satellite is in the earth's shadow,  

DLR